Lapse_Rate
6.4 6.4 6.3 6.2 6.1 6.1 6.5 6.2 6.1 6.1 6.2 6.3 6.4 6.3 6.2 6.1 6.2 6.1 6.2 6.2 6.2 6.4 6.4 6.5 6.4 6.3 6.4 6.4 6.4 6.3 6.1 6.0 5.8 5.7 5.6 5.5 5.4 5.4 5.3 5.4 5.4 5.3 5.3 5.3 5.3 5.3 5.4 5.5 5.5
6.5 6.4 6.3 6.2 6.1 6.2 6.4 6.4 6.1 6.1 6.2 6.1 6.2 6.3 6.2 6.1 6.1 6.0 6.3 6.3 6.3 6.5 6.2 6.2 6.3 6.4 6.5 6.5 6.5 6.5 6.4 6.2 5.9 5.8 5.7 5.6 5.5 5.4 5.4 5.3 5.4 5.5 5.4 5.4 5.4 5.5 5.5 5.6 5.4
6.5 6.5 6.4 6.2 6.1 6.3 6.2 6.3 6.3 6.1 6.1 6.1 6.3 6.3 6.1 6.1 6.0 6.0 6.2 6.3 6.4 6.4 6.2 6.1 6.1 6.2 6.3 6.4 6.5 6.5 6.5 6.4 6.2 6.0 5.9 5.8 5.7 5.6 5.5 5.5 5.5 5.6 5.6 5.7 5.6 5.6 5.7 5.6 5.6
6.5 6.4 6.4 6.3 6.3 6.5 6.3 6.1 6.1 6.2 6.2 6.1 6.1 6.2 6.1 6.0 6.1 6.1 6.2 6.4 6.5 6.3 6.1 6.1 6.1 6.1 6.2 6.2 6.4 6.5 6.4 6.4 6.3 6.2 6.1 5.9 5.8 5.7 5.6 5.6 5.6 5.5 5.6 5.7 5.7 5.8 5.7 5.7 5.7
6.3 6.5 6.5 6.5 6.5 6.7 6.5 6.3 6.1 6.3 6.4 6.3 6.2 6.4 6.3 6.2 6.0 6.1 6.2 6.2 6.2 6.2 6.2 6.2 6.2 6.1 6.2 6.2 6.2 6.3 6.4 6.4 6.4 6.3 6.2 6.1 6.0 5.9 5.8 5.7 5.7 5.6 5.6 5.7 5.7 5.7 5.7 5.7 5.7
6.0 6.5 6.5 6.4 6.5 6.8 6.7 6.4 6.2 6.2 6.2 6.3 6.3 6.4 6.3 6.3 6.2 6.2 6.1 6.2 6.1 6.0 6.0 6.1 6.2 6.2 6.2 6.2 6.3 6.3 6.3 6.3 6.3 6.2 6.1 6.1 6.0 6.0 5.8 5.7 5.7 5.7 5.7 5.7 5.6 5.6 5.6 5.6 5.6
6.1 6.6 6.6 6.5 6.5 6.8 6.7 6.4 6.1 6.2 6.4 6.4 6.4 6.3 6.5 6.4 6.2 6.4 6.3 6.2 6.2 6.1 6.0 5.9 6.0 6.1 6.1 6.1 6.2 6.2 6.2 6.2 6.2 6.1 6.2 6.1 6.0 5.9 5.9 5.8 5.7 5.7 5.6 5.6 5.7 5.7 5.8 5.7 5.7
6.1 6.4 6.8 6.5 6.4 6.8 6.7 6.6 6.3 6.3 6.4 6.7 6.5 6.4 6.7 6.6 6.2 6.5 6.4 6.2 6.2 6.2 6.0 6.0 6.1 6.1 6.2 6.2 6.2 6.2 6.2 6.2 6.1 5.9 5.9 6.0 6.0 6.0 6.0 5.9 5.9 5.8 5.8 5.7 5.7 5.7 5.7 5.6 5.7
6.2 6.4 7.0 6.6 6.4 6.7 6.7 6.7 6.4 6.5 6.5 6.9 6.7 6.6 6.9 6.7 6.5 6.6 6.7 6.5 6.3 6.2 6.2 6.2 6.2 6.2 6.3 6.3 6.3 6.2 6.2 6.1 6.1 6.1 6.0 5.9 6.0 6.0 6.0 6.0 5.9 5.9 6.0 5.9 5.9 5.9 5.8 5.8 5.9
6.1 6.1 6.9 6.7 6.4 6.7 6.7 6.8 6.5 6.6 6.7 6.7 7.0 7.0 7.2 7.0 6.7 6.6 6.6 6.5 6.5 6.5 6.5 6.7 6.5 6.3 6.2 6.2 6.2 6.3 6.3 6.2 6.2 6.1 6.0 6.0 6.1 6.1 6.0 5.9 5.9 6.0 5.9 5.9 5.9 5.9 6.0 6.0 5.9
6.0 6.3 6.5 6.8 6.3 6.7 6.8 6.6 6.8 6.7 6.7 6.7 6.6 6.9 7.2 7.1 7.0 6.7 6.6 6.5 6.6 6.7 6.5 6.7 6.6 6.4 6.2 6.2 6.1 6.1 6.1 6.2 6.2 6.2 6.2 6.2 6.1 6.1 6.0 5.9 5.9 5.9 5.9 5.9 6.0 6.1 6.1 6.1 6.1
6.0 6.4 6.5 7.0 6.6 6.5 6.9 6.6 6.8 6.8 6.7 6.6 6.5 6.8 7.2 7.2 7.2 7.0 6.9 6.9 6.9 6.7 6.5 6.4 6.4 6.5 6.4 6.4 6.3 6.2 6.1 6.1 6.2 6.2 6.1 6.1 6.1 6.1 6.0 5.9 5.9 5.9 6.0 6.1 6.1 5.9 5.9 5.8 5.8
5.8 6.1 6.5 6.7 6.7 6.7 6.8 6.8 6.7 6.9 6.8 6.7 6.8 6.9 7.2 7.3 7.3 7.1 7.1 7.0 6.9 6.7 6.6 6.5 6.5 6.6 6.5 6.5 6.4 6.4 6.2 6.1 6.2 6.4 6.3 6.2 6.2 6.1 6.1 6.0 6.0 5.9 5.8 5.9 5.9 5.8 5.8 5.8 5.7
5.6 5.8 6.2 6.7 6.9 6.8 6.8 6.6 6.7 6.8 6.9 6.9 7.1 6.9 7.1 7.2 7.2 7.2 7.2 7.0 7.0 6.8 6.6 6.6 6.6 6.6 6.5 6.4 6.4 6.4 6.4 6.3 6.2 6.3 6.4 6.3 6.2 6.1 5.9 5.8 5.6 5.7 5.7 5.5 5.6 5.8 5.8 5.7 5.7
5.5 5.8 6.1 6.3 6.8 6.8 6.9 6.3 6.6 6.9 6.9 6.9 7.0 7.0 7.1 7.2 7.3 7.1 7.1 7.0 7.0 6.9 6.9 6.8 6.7 6.7 6.7 6.5 6.4 6.4 6.5 6.4 6.3 6.1 6.2 6.2 6.1 5.9 5.7 5.5 5.5 5.4 5.4 5.4 5.3 5.2 5.3 5.2 5.2
5.6 5.7 5.6 6.0 6.6 6.9 6.7 6.4 6.7 6.9 7.0 7.0 7.1 7.1 7.0 7.3 7.4 7.2 7.1 7.1 7.1 7.2 7.1 7.0 6.9 6.7 6.6 6.5 6.5 6.5 6.5 6.4 6.2 6.2 6.3 6.1 6.0 5.6 5.5 5.5 5.5 5.5 5.3 5.2 5.2 5.0 5.2 5.3 5.0
5.4 4.9 5.1 5.2 6.0 6.2 6.3 6.4 6.6 6.8 6.9 6.9 7.1 7.2 7.1 7.2 7.3 7.3 7.2 7.0 7.1 7.1 7.1 7.0 6.9 6.6 6.4 6.4 6.6 6.5 6.4 6.4 6.1 6.0 5.9 5.7 5.7 5.7 5.6 5.5 5.3 5.3 5.1 4.9 4.8 4.9 4.6 4.8 4.9
5.1 4.9 5.1 5.2 5.6 6.3 6.1 6.1 6.6 6.8 6.7 6.8 6.9 7.1 7.1 7.3 7.3 7.1 7.1 7.2 7.2 7.2 7.0 6.9 6.8 6.7 6.5 6.3 6.3 6.2 6.3 6.2 5.9 5.9 5.9 5.8 5.5 5.4 5.6 5.4 5.2 5.0 5.1 5.1 4.8 4.5 4.7 4.6 4.4
5.5 5.4 5.4 5.5 5.3 5.5 5.8 6.3 6.5 6.7 6.7 6.6 6.7 6.9 7.0 7.4 6.8 6.7 6.9 7.0 7.1 7.0 6.9 6.7 6.5 6.4 6.4 6.5 6.3 6.0 6.0 6.0 6.1 6.0 5.9 5.9 5.8 5.6 5.4 5.2 5.2 5.1 5.2 5.0 4.7 4.3 4.2 4.7 4.3
5.5 5.7 5.8 5.3 5.1 5.6 5.8 6.3 6.5 6.4 6.9 6.7 6.7 7.0 7.2 7.2 6.9 6.6 6.7 6.8 6.8 6.8 6.7 6.8 6.8 6.6 6.5 6.4 6.1 6.0 6.2 6.2 6.2 6.1 6.0 6.0 5.9 5.5 5.4 5.0 5.0 4.9 5.0 4.9 5.0 4.4 4.0 4.1 4.2
5.4 5.3 5.6 5.8 5.2 5.1 5.7 5.9 6.2 5.8 6.4 6.6 6.6 6.6 7.1 6.9 6.7 6.4 6.4 6.6 6.6 6.6 6.7 6.7 6.6 6.5 6.2 6.1 6.0 6.0 6.1 6.1 6.1 6.0 6.3 6.1 5.9 5.8 5.9 5.8 5.7 5.5 5.5 5.3 5.1 4.6 4.1 4.1 4.3
5.2 5.0 5.0 4.9 5.3 5.0 5.1 4.6 5.0 5.1 5.6 5.9 5.9 6.3 6.9 6.9 6.8 6.6 6.5 6.5 6.4 6.2 6.3 6.3 6.3 6.1 6.1 6.0 5.9 5.9 5.8 5.8 6.1 6.1 6.0 5.9 5.7 5.7 5.6 5.5 5.6 5.6 5.6 5.3 5.2 4.8 4.4 4.1 4.0
5.0 5.2 5.2 5.2 5.0 4.9 4.8 4.9 5.0 5.0 5.1 5.4 5.8 5.8 6.3 6.5 6.0 6.1 6.0 6.0 5.8 6.0 6.0 5.9 5.9 5.9 5.8 6.0 5.9 5.9 6.0 6.0 5.8 5.5 5.5 5.5 5.6 5.7 5.6 5.7 5.8 5.9 5.8 5.7 5.7 5.5 4.9 4.6 4.3
5.1 5.2 5.2 5.0 4.8 4.5 4.4 4.8 4.7 5.1 4.7 4.8 5.6 5.3 5.2 5.6 5.5 5.1 4.9 5.1 5.0 5.2 5.9 5.9 5.8 5.9 6.1 6.1 6.1 6.0 5.7 5.5 5.3 5.2 5.5 5.7 5.7 5.8 5.7 5.8 6.0 6.0 6.0 5.9 5.7 5.3 5.0 4.7 4.5
5.2 5.0 4.4 4.6 4.5 4.4 4.3 4.7 4.6 4.9 5.0 4.5 4.4 4.8 4.5 5.1 5.3 4.2 4.7 4.9 5.3 5.4 5.5 5.7 5.7 5.5 5.7 5.7 5.6 5.4 5.2 5.2 5.5 5.5 5.5 5.6 5.7 5.8 5.9 5.8 5.7 5.7 5.7 5.6 5.5 5.5 5.3 5.0 4.7
4.9 5.2 4.7 4.7 4.2 3.6 4.2 4.5 4.6 4.7 4.8 4.8 4.7 4.5 4.4 4.0 4.0 4.3 4.4 3.8 4.2 4.3 4.6 5.1 5.3 5.3 5.1 5.5 5.5 5.6 5.7 5.8 5.8 5.6 5.6 5.6 5.7 5.8 5.8 5.6 5.5 5.5 5.4 5.5 5.6 5.6 5.6 5.3 5.0
4.8 5.1 4.8 4.7 4.3 4.7 4.5 4.4 4.4 4.7 5.0 5.1 4.9 4.8 4.7 4.6 4.4 4.4 4.3 4.2 3.8 4.0 4.9 5.3 5.5 5.4 5.5 5.6 5.7 5.7 5.8 5.7 5.4 5.4 5.5 5.7 5.8 5.8 5.7 5.5 5.5 5.5 5.3 5.3 5.3 5.5 5.7 5.8 5.8
5.4 5.2 4.8 4.3 4.0 3.6 3.9 4.7 5.1 4.7 5.0 5.0 4.8 4.4 4.6 4.1 3.8 4.0 4.1 4.4 5.0 4.8 5.1 5.1 5.2 5.5 5.6 5.7 6.0 6.0 5.8 5.8 5.9 6.1 6.2 6.0 5.8 5.5 5.8 5.8 5.9 5.8 5.7 5.6 5.5 5.6 5.7 5.6 5.8
5.4 5.1 4.8 5.1 5.6 4.4 4.2 5.0 5.6 5.4 5.2 5.0 5.0 4.6 4.8 4.8 4.6 4.5 4.8 4.9 5.0 5.1 5.3 5.5 5.7 5.8 6.0 6.3 6.2 6.1 6.3 6.5 6.5 6.3 6.1 6.1 6.3 6.4 6.4 6.3 6.2 5.9 5.8 5.8 5.8 5.9 6.2 6.4 6.7
5.6 5.6 5.7 6.2 5.7 5.6 5.4 4.9 5.8 5.4 5.5 5.2 5.1 5.0 4.8 4.8 4.8 5.1 5.2 5.3 5.4 5.6 5.8 6.0 6.2 6.4 6.5 6.6 6.6 6.8 6.7 6.7 6.8 6.8 6.7 6.7 6.5 6.4 6.3 6.2 6.1 6.3 6.5 6.7 6.8 7.0 7.1 7.1 7.1
Wind_Speed
4 3 2 4 3 4 2 1 0 3 2 3 3 2 7 4 2 3 3 7 15 10 15 16 14 14 16 15 14 13 12 12 12 12 12 11 13 16 16 15 16 14 12 12 12 11 10 11 11
2 1 4 2 4 2 4 3 5 2 6 7 7 4 5 3 3 7 4 10 17 14 15 15 15 15 15 14 13 12 11 10 10 11 12 10 10 11 14 14 13 10 10 10 10 9 8 9 9
2 2 3 3 2 3 3 2 5 4 6 1 4 5 3 3 3 7 7 12 16 13 15 16 15 16 15 14 13 13 11 10 10 10 11 11 9 10 10 11 10 9 9 8 8 8 7 7 8
3 4 4 3 3 4 3 6 3 6 2 5 4 7 3 1 8 7 12 14 12 11 15 17 15 13 14 14 13 11 10 10 9 9 9 10 9 11 10 10 9 8 8 6 8 6 5 6 6
4 3 3 1 3 4 2 4 4 3 3 3 1 3 3 1 12 16 13 11 11 9 16 17 16 13 14 13 11 10 9 9 9 9 9 8 9 9 8 9 8 7 6 5 5 3 3 3 5
3 2 3 1 4 4 2 3 4 2 2 3 6 5 3 9 14 12 11 9 12 11 13 15 16 15 13 11 12 11 10 9 9 8 8 8 8 8 8 7 6 5 4 3 2 1 1 3 4
3 3 2 2 3 1 3 5 3 5 5 2 8 4 2 5 10 12 10 9 11 13 12 13 15 15 13 11 11 12 11 10 9 7 7 6 5 5 5 4 3 3 3 3 2 1 2 3 5
4 3 3 2 2 3 5 6 4 4 2 4 5 6 6 6 9 10 10 8 8 10 11 12 13 13 13 12 11 11 11 10 9 8 6 5 5 4 5 5 4 3 3 3 3 3 4 5 7
2 3 3 2 2 5 3 3 3 1 6 1 2 6 6 16 14 12 10 6 5 4 6 11 10 12 13 12 12 11 11 11 11 10 10 8 7 7 6 6 5 5 5 5 6 6 7 8 9
4 3 5 1 3 4 4 2 8 5 3 1 3 6 17 18 15 13 11 10 7 6 5 8 11 11 12 8 12 11 11 9 9 9 10 9 8 8 8 9 9 8 8 7 8 9 9 10 10
4 4 2 3 2 3 4 3 3 9 3 6 8 16 17 17 14 13 11 12 12 9 5 7 11 15 14 11 13 12 11 10 9 9 10 9 8 9 8 11 10 9 11 9 9 11 11 11 10
3 3 2 5 3 5 2 1 3 5 4 7 12 22 17 17 15 13 12 9 9 8 10 9 12 11 13 13 12 12 10 11 11 12 12 10 10 9 10 10 10 11 12 11 12 9 10 7 12
6 2 3 6 8 4 5 6 5 4 2 9 10 16 17 15 11 8 11 10 10 10 10 9 10 9 11 9 11 11 12 12 15 14 15 14 10 8 10 11 10 12 12 12 10 10 11 10 11
7 3 5 5 5 3 2 2 3 1 6 10 15 14 13 15 13 8 9 11 11 11 10 9 8 12 12 10 12 12 14 16 15 15 16 17 16 12 10 10 11 12 14 16 14 11 9 9 10
3 0 3 1 4 2 1 2 6 3 8 12 11 10 8 11 9 14 12 10 12 8 10 9 9 13 12 11 12 11 13 13 13 16 18 18 17 16 13 10 8 14 16 16 13 12 10 6 8
4 3 4 1 4 2 3 6 2 6 12 11 9 7 7 8 12 8 8 7 8 7 8 8 8 8 8 8 11 10 14 14 15 17 18 19 18 18 14 10 9 16 14 13 8 5 4 4 4
2 6 9 2 2 2 2 5 4 3 7 8 8 8 8 7 7 7 8 8 9 9 8 7 7 8 8 9 10 12 13 13 16 16 15 17 17 18 15 11 13 14 10 8 5 4 4 4 5
5 9 1 7 3 3 2 4 3 3 5 7 6 6 7 8 14 8 8 8 7 8 7 7 7 7 7 5 4 4 6 9 13 13 15 17 17 20 15 13 13 11 5 4 4 5 4 5 6
10 9 13 3 1 2 2 4 5 5 2 6 7 7 8 11 6 5 7 7 6 4 6 8 7 8 4 2 3 3 5 3 4 12 17 16 17 18 12 9 8 7 4 5 5 3 5 5 3
8 13 8 3 3 2 3 4 5 4 3 6 8 8 9 2 1 2 1 3 2 2 1 2 1 2 3 0 0 1 1 2 2 4 10 15 14 13 9 8 5 6 3 5 5 5 4 3 3
5 12 12 7 3 3 2 4 4 2 1 2 4 1 3 6 5 5 6 6 5 6 5 4 2 1 1 2 1 2 2 2 2 2 3 7 11 13 11 10 6 7 3 4 5 4 5 8 3
3 3 5 7 9 6 2 4 4 1 4 5 6 7 5 8 8 6 5 5 5 6 6 7 7 7 6 7 4 3 1 2 1 2 3 6 12 12 11 9 7 7 4 4 5 4 5 4 10
2 5 7 3 4 2 2 2 3 0 3 5 8 7 8 7 8 7 4 5 5 6 7 7 7 8 8 7 6 4 3 2 3 3 7 5 7 11 12 11 9 6 5 5 5 6 5 6 8
9 8 8 5 3 4 5 8 3 7 5 4 8 8 5 8 8 6 6 6 8 7 7 8 8 8 8 7 8 7 7 6 5 5 5 5 4 4 9 9 7 8 7 5 5 5 6 7 7
6 8 2 2 3 3 5 7 2 5 6 7 9 10 6 11 13 10 11 8 7 10 8 7 10 11 10 8 8 7 7 6 6 6 4 7 5 4 6 6 5 4 8 8 7 5 6 6 6
11 5 4 6 5 3 2 5 3 3 4 12 7 11 8 10 10 8 9 7 9 9 10 12 12 11 8 8 8 7 8 4 4 5 5 5 4 6 8 9 8 9 10 9 7 4 5 5 5
4 4 2 4 3 3 3 2 2 4 7 12 11 12 9 9 6 8 7 6 7 9 9 9 11 10 11 10 8 7 6 7 5 6 4 4 5 5 9 11 7 9 9 8 5 5 6 5 6
3 5 3 1 4 2 3 4 3 6 8 13 13 13 12 10 9 8 8 9 8 9 9 11 10 10 9 10 10 8 8 8 7 6 8 8 7 7 8 8 7 8 7 8 6 6 6 6 6
4 3 4 3 2 4 4 4 2 6 11 17 17 11 11 10 9 8 7 7 6 7 8 9 12 12 12 11 10 10 10 10 8 6 6 7 7 7 9 9 10 10 10 8 7 8 9 9 10
2 4 4 3 3 1 1 2 4 7 7 9 11 11 8 8 7 7 7 6 7 8 9 9 10 10 9 7 7 7 8 9 9 10 11 12 11 12 7 9 9 9 9 8 8 11 10 10 12
Wind_Direction
93 94 71 40 53 56 296 262 112 125 86 314 83 129 138 55 134 186 105 128 127 130 140 145 145 139 140 122 118 112 104 98 93 90 91 89 84 85 84 86 85 82 85 83 82 80 77 76 74
146 250 44 76 89 34 283 260 156 186 142 121 83 97 48 85 86 115 100 143 133 134 136 141 140 140 137 138 131 120 108 100 96 93 94 96 86 83 87 79 78 88 86 86 83 82 78 71 69
168 46 77 97 110 188 223 219 164 114 156 217 109 63 105 133 66 137 136 137 130 130 136 143 143 138 142 143 136 129 119 110 106 105 106 104 95 94 88 85 82 78 87 88 92 90 81 67 64
50 12 33 92 212 252 226 161 197 133 164 57 111 68 53 128 146 142 134 133 126 128 139 147 144 145 148 147 140 132 129 127 124 120 117 112 102 109 100 91 87 84 78 84 108 92 76 53 38
30 57 50 23 285 271 294 151 156 134 105 74 42 132 78 53 114 125 134 137 133 129 143 147 148 145 143 141 144 145 145 142 137 135 130 124 120 116 110 105 101 92 86 85 87 98 64 23 3
35 78 52 241 268 322 84 121 145 83 91 154 81 92 120 132 128 139 137 137 140 139 144 149 150 152 154 154 155 154 152 149 144 143 143 142 141 142 139 132 123 120 116 111 109 114 328 317 325
81 60 230 209 265 98 167 131 171 145 128 192 140 87 75 146 146 138 132 128 133 138 142 152 157 157 159 159 164 163 162 162 159 154 151 149 150 153 157 163 162 162 166 154 155 193 293 311 319
101 88 292 267 257 243 194 149 148 144 187 108 141 157 174 178 143 122 122 124 132 138 147 156 166 166 173 171 173 176 173 173 170 171 168 169 176 188 196 200 211 210 205 219 241 260 276 290 300
98 57 264 256 196 280 134 122 120 73 112 334 120 148 160 139 132 123 120 113 122 142 158 159 166 176 173 171 175 182 190 188 188 188 191 194 205 213 219 226 227 227 231 239 254 267 279 288 294
91 127 239 265 305 301 311 207 151 119 124 14 50 65 125 140 146 145 153 155 161 169 184 171 170 183 183 184 186 185 182 184 191 199 206 211 220 230 235 239 235 243 244 252 263 270 275 278 276
115 189 305 286 288 308 279 186 150 124 243 212 170 145 142 151 155 158 164 167 176 181 186 189 181 187 185 191 195 200 199 202 209 220 224 225 231 240 243 237 241 243 235 247 256 262 261 262 274
113 204 223 288 328 340 311 232 186 170 220 182 163 156 150 160 165 170 168 177 163 175 192 196 193 187 194 189 192 204 208 210 213 221 232 231 235 241 236 225 234 230 233 234 249 255 261 259 281
143 266 287 288 295 279 304 259 231 205 62 115 136 158 159 165 165 172 174 178 169 186 196 196 189 191 197 191 195 202 214 218 223 219 226 231 234 237 241 243 243 243 246 242 245 251 264 270 280
162 190 275 287 311 298 327 249 177 235 130 125 153 169 170 172 172 172 178 182 181 191 195 191 190 197 192 193 195 205 210 221 228 234 232 234 235 238 244 250 254 255 247 249 250 243 248 258 268
135 112 307 1 326 282 261 245 231 148 145 146 167 175 175 179 182 189 188 188 187 195 194 193 193 201 192 194 207 208 216 225 230 236 241 242 240 237 239 246 248 251 257 258 261 267 263 268 267
115 82 242 8 334 36 123 247 240 158 148 168 168 176 186 198 198 192 188 191 190 185 190 193 195 194 198 194 206 215 219 225 237 240 241 243 241 238 238 239 243 251 256 254 253 256 268 257 253
171 199 204 211 20 288 168 240 12 144 161 173 184 183 186 200 219 214 200 201 193 196 194 198 199 195 198 207 211 219 224 224 236 243 245 247 247 242 234 241 249 247 247 246 242 258 226 265 263
162 195 108 206 341 33 6 275 8 3 171 199 191 196 192 205 216 211 212 214 198 196 194 197 203 200 192 203 213 229 241 243 247 247 245 248 248 247 235 243 245 237 229 251 238 247 240 246 260
164 189 201 134 308 148 114 260 286 324 199 184 201 209 215 214 217 219 226 223 213 212 195 202 191 209 166 162 185 231 231 230 226 236 247 251 251 252 248 254 268 250 256 248 238 244 256 271 211
215 186 174 96 334 129 16 289 269 297 217 200 203 208 220 192 160 313 282 86 75 22 3 81 222 229 229 194 290 170 214 247 280 273 266 265 266 269 260 260 270 273 266 266 258 234 268 260 197
200 206 179 162 142 94 72 318 2 325 263 173 225 300 118 137 79 24 31 25 34 49 33 85 99 236 266 251 3 17 3 16 335 339 326 335 326 301 280 274 272 280 251 263 271 258 242 268 261
182 164 123 117 162 207 75 254 220 248 353 27 86 72 84 94 77 48 43 52 34 26 17 30 41 46 39 33 51 39 2 314 314 296 296 323 331 322 308 287 274 272 277 272 273 269 246 248 268
132 170 145 122 122 105 179 180 247 14 154 77 65 38 62 53 92 90 65 62 46 43 35 29 40 35 27 36 39 37 17 322 322 325 339 336 327 325 314 302 303 302 294 279 275 291 276 260 264
129 90 68 57 77 234 174 183 213 208 170 108 84 53 52 83 64 60 56 48 55 41 47 46 43 33 25 29 31 39 30 358 356 346 340 332 316 314 324 316 306 291 280 275 278 272 268 271 264
112 140 108 146 189 212 180 185 243 241 242 150 142 101 25 60 52 23 39 18 37 46 32 43 48 35 13 17 23 24 21 14 356 345 330 332 330 324 327 330 319 290 281 279 273 268 271 272 272
147 143 162 176 184 142 145 211 243 261 226 212 151 121 99 78 65 45 41 14 32 34 39 34 35 32 7 13 10 9 12 6 351 346 333 317 316 319 314 312 299 295 291 284 282 270 267 257 258
146 167 79 99 48 88 191 227 355 51 78 113 123 126 126 113 118 106 70 53 53 51 49 47 43 35 24 15 9 8 9 6 348 332 316 309 317 321 316 314 311 305 294 280 267 264 269 247 254
183 144 79 5 139 161 231 222 192 164 140 123 126 133 130 129 114 89 78 58 47 44 45 43 39 33 21 17 15 9 3 0 351 342 347 343 327 320 321 317 314 306 305 292 283 272 257 247 257
151 136 208 128 138 159 134 252 215 159 166 149 143 136 124 114 101 87 77 63 54 50 45 42 33 25 18 10 360 3 2 1 359 355 336 326 322 325 325 324 317 311 303 293 284 283 284 274 275
326 178 174 135 219 344 52 269 332 147 121 122 116 115 103 96 98 87 76 70 55 45 40 39 31 26 7 352 352 0 0 1 360 356 349 346 342 331 325 318 312 305 299 294 284 287 283 268 273